Trabzon, Turkey

12:10 PM +03 on May 25, 2017 (GMT +0300)
Trabzon

Weather History for LTCG - January, 2012

Change the Weather History Date:

Monday, January 2, 2012

  Actual Average Record
Temperature  
Mean Temperature 46 °F -  
Max Temperature 51 °F 49 °F 62 °F (2001)
Min Temperature 41 °F 39 °F 29 °F (2016)
Degree Days  
Heating Degree Days 19    
Moisture  
Dew Point 36 °F    
Average Humidity 73    
Maximum Humidity 87    
Minimum Humidity 57    
Precipitation  
Precipitation 0.12 in - - ()
Sea Level Pressure  
Sea Level Pressure 30.24 in    
Wind  
Wind Speed 13 mph ()    
Max Wind Speed 22 mph    
Max Gust Speed -    
Visibility 5.8 miles    
Events Rain    
Averages and records for this station are not official NWS values.
T = Trace of Precipitation, MM = Missing Value Source: Averaged Metar Reports

Daily Weather History Graph

Daily Weather History Graph

Search for Another Location

Airport or City:

Trip Planner

Search our weather history database for the weather conditions in past years. The results will help you decide how hot, cold, wet, or windy it might be!

Date:

Astronomy

Jan. 02, 2012 Rise Set
Actual Time 6:45 AM EET 4:03 PM EET
Civil Twilight 6:14 AM EET 4:34 PM EET
Nautical Twilight 5:40 AM EET 5:09 PM EET
Astronomical Twilight 5:06 AM EET 5:42 PM EET
Moon 11:11 AM EET (1/2) 12:16 AM EET (1/2)
Length of Visible Light 10h 19m
Length of Day
9h 17m
First Quarter, 61% of the Moon is Illuminated
Jan 2
First Quarter
Jan 9
Full
Jan 16
Last Quarter
Jan 23
New
Jan 31
First Quarter

Hourly Weather History & Observations

Time (EET) Temp. Windchill Dew Point Humidity Pressure Visibility Wind Dir Wind Speed Gust Speed Precip Events Conditions
12:20 AM 51.8 °F - 41.0 °F 67% 30.04 in 6.2 mi WNW 13.8 mph - N/A   Mostly Cloudy
12:50 AM 51.8 °F - 41.0 °F 67% 30.04 in 6.2 mi WSW 9.2 mph - N/A   Mostly Cloudy
1:20 AM 50.0 °F - 41.0 °F 71% 30.06 in 6.2 mi West 12.7 mph - N/A   Mostly Cloudy
1:50 AM 50.0 °F - 42.8 °F 76% 30.06 in 6.2 mi WNW 18.4 mph - N/A Rain Light Rain Showers
2:00 AM 49 °F - 43 °F 71% 30.09 in 12 mi WNW 18.4 mph - - Rain Light Rain Showers
2:20 AM 48.2 °F - 41.0 °F 76% 30.06 in 6.2 mi WNW 20.7 mph - N/A Rain Light Rain Showers
2:50 AM 48.2 °F - 41.0 °F 76% 30.09 in 6.2 mi WNW 21.9 mph - N/A Rain Light Rain Showers
3:20 AM 46.4 °F 38.7 °F 39.2 °F 76% 30.09 in 6.2 mi WNW 20.7 mph - N/A Rain Light Rain Showers
3:50 AM 46.4 °F 38.5 °F 39.2 °F 76% 30.09 in 6.2 mi WNW 21.9 mph - N/A Rain Light Rain Showers
4:20 AM 46.4 °F 38.7 °F 39.2 °F 76% 30.09 in 6.2 mi WNW 20.7 mph - N/A   Mostly Cloudy
4:50 AM 48.2 °F - 37.4 °F 66% 30.09 in 6.2 mi WNW 17.3 mph - N/A   Mostly Cloudy
5:20 AM 48.2 °F - 37.4 °F 66% 30.12 in 6.2 mi WNW 18.4 mph - N/A   Mostly Cloudy
5:50 AM 46.4 °F 38.5 °F 37.4 °F 71% 30.15 in 6.2 mi NW 21.9 mph - N/A Rain Light Rain Showers
6:20 AM 46.4 °F 39.2 °F 39.2 °F 76% 30.15 in 6.2 mi NW 18.4 mph - N/A Rain Light Rain Showers
6:50 AM 46.4 °F 39.5 °F 39.2 °F 76% 30.18 in 6.2 mi WNW 17.3 mph - N/A Rain Light Rain Showers
7:20 AM 44.6 °F 36.4 °F 37.4 °F 76% 30.21 in 3.7 mi WNW 20.7 mph - N/A Rain Light Rain Showers
8:00 AM 44 °F - 38 °F 73% 30.24 in 4 mi NW 17.3 mph - - Rain Light Rain Showers
8:20 AM 44.6 °F 37.8 °F 37.4 °F 76% 30.27 in 4.3 mi West 15.0 mph - N/A Rain Light Rain Showers
8:50 AM 42.8 °F 34.8 °F 37.4 °F 81% 30.27 in 2.2 mi WNW 17.3 mph - N/A Rain Light Rain Showers
9:20 AM 42.8 °F 34.8 °F 37.4 °F 81% 30.27 in 2.2 mi WNW 17.3 mph - N/A Rain Light Rain Showers
9:50 AM 42.8 °F 34.8 °F 39.2 °F 87% 30.30 in 1.6 mi WNW 17.3 mph - N/A Rain Light Rain Showers
10:20 AM 42.8 °F 35.8 °F 37.4 °F 81% 30.27 in 1.6 mi NW 13.8 mph - N/A Rain Light Rain Showers
10:50 AM 42.8 °F 35.1 °F 37.4 °F 81% 30.30 in 2.2 mi NW 16.1 mph - N/A Rain Light Rain Showers
11:20 AM 42.8 °F 34.0 °F 35.6 °F 76% 30.30 in 6.2 mi WNW 20.7 mph - N/A Rain Light Rain Showers
11:50 AM 42.8 °F 35.8 °F 35.6 °F 76% 30.30 in 6.2 mi West 13.8 mph - N/A Rain Light Rain Showers
12:20 PM 42.8 °F 37.5 °F 35.6 °F 76% 30.30 in 6.2 mi West 9.2 mph - N/A Rain Light Rain Showers
12:50 PM 42.8 °F 36.6 °F 35.6 °F 76% 30.30 in 6.2 mi West 11.5 mph - N/A   Mostly Cloudy
1:20 PM 42.8 °F 37.0 °F 35.6 °F 76% 30.30 in 6.2 mi West 10.4 mph - N/A Rain Light Rain Showers
1:50 PM 42.8 °F 37.0 °F 35.6 °F 76% 30.30 in 6.2 mi West 10.4 mph - N/A Rain Light Rain Showers
2:00 PM 42 °F - 36 °F 72% 30.32 in 6 mi West 10.4 mph - - Rain Light Rain Showers
2:20 PM 42.8 °F 38.0 °F 35.6 °F 76% 30.30 in 6.2 mi West 8.1 mph - N/A Rain Light Rain Showers
2:50 PM 41.0 °F 35.8 °F 35.6 °F 81% 30.30 in 5.6 mi WSW 8.1 mph - N/A Rain Light Rain Showers
3:20 PM 41.0 °F 33.9 °F 35.6 °F 81% 30.30 in 6.2 mi SW 12.7 mph - N/A Rain Light Rain Showers
3:50 PM 41.0 °F 35.8 °F 33.8 °F 76% 30.33 in 5.6 mi SW 8.1 mph - N/A   Mostly Cloudy
4:20 PM 41.0 °F 35.2 °F 33.8 °F 76% 30.33 in 5.6 mi WSW 9.2 mph - N/A Rain Light Rain Showers
4:50 PM 41.0 °F 35.8 °F 33.8 °F 76% 30.33 in 6.2 mi SW 8.1 mph - N/A Rain Light Rain Showers
5:20 PM 41.0 °F 35.2 °F 32.0 °F 70% 30.33 in 6.2 mi SW 9.2 mph - N/A Rain Light Rain Showers
5:50 PM 41.0 °F 35.8 °F 33.8 °F 76% 30.33 in 6.2 mi WSW 8.1 mph - N/A Rain Light Rain Showers
6:20 PM 41.0 °F 34.7 °F 32.0 °F 70% 30.33 in 6.2 mi SW 10.4 mph - N/A Rain Light Rain Showers
6:50 PM 41.0 °F 35.8 °F 32.0 °F 70% 30.33 in 6.2 mi SW 8.1 mph - N/A   Mostly Cloudy
7:20 PM 42.8 °F 40.1 °F 32.0 °F 66% 30.33 in 6.2 mi SSW 4.6 mph - N/A   Mostly Cloudy
7:50 PM 42.8 °F 41.1 °F 32.0 °F 66% 30.33 in 6.2 mi SSW 3.5 mph - N/A   Mostly Cloudy
8:00 PM 42 °F - 32 °F 57% 30.35 in 12 mi SSW 3.5 mph - -   Partly Cloudy
8:20 PM 41.0 °F 37.1 °F 33.8 °F 76% 30.33 in 6.2 mi SE 5.8 mph - N/A   Mostly Cloudy
8:50 PM 41.0 °F 37.1 °F 32.0 °F 70% 30.33 in 6.2 mi SSW 5.8 mph - N/A   Mostly Cloudy
9:20 PM 41.0 °F 38.0 °F 32.0 °F 70% 30.33 in 6.2 mi SW 4.6 mph - N/A   Mostly Cloudy
9:50 PM 41.0 °F 35.2 °F 32.0 °F 70% 30.33 in 6.2 mi SSW 9.2 mph - N/A   Mostly Cloudy
10:20 PM 41.0 °F 35.2 °F 32.0 °F 70% 30.33 in 6.2 mi SSW 9.2 mph - N/A   Mostly Cloudy
10:50 PM 42.8 °F 37.5 °F 32.0 °F 66% 30.30 in 6.2 mi SW 9.2 mph - N/A   Mostly Cloudy
11:20 PM 42.8 °F 37.5 °F 32.0 °F 66% 30.30 in 6.2 mi SW 9.2 mph - N/A   Mostly Cloudy
11:50 PM 42.8 °F 38.6 °F 30.2 °F 61% 30.30 in 6.2 mi SW 6.9 mph - N/A   Mostly Cloudy